カタログに戻る

THORAD AGENA D DEB

運用中LEO
NORAD 4180·DEBRIS·🇺🇸 United States

打ち上げ Sep 30, 1969 から Vandenberg Space Force Base

Loading…

次のパス (今後24時間)

TLE

最新Source: Space-Track

元期: Sep 14, 2026, 13:21 UTC

1 04180U 69082AY  26257.55667877  .00000326  00000-0  13066-3 0  9991
2 04180  69.9769  94.4376 0070214 114.5410 246.3056 14.35223499960614

AllMySatでTHORAD AGENA D DEBをリアルタイム追跡

Download on the App Store